When you browse on this site, cookies collect data to enhance your experience and personalize the content and advertising you see.
Visit our Privacy Policy to learn more. By continuing to use the site, you agree to this use of cookies and data.
  • In Romania
  • List of Countries
  • For 7 days
  • Water Temperature
  • Weather Map
  • Weather Widgets
  • user-avatar
    Login

    Hourly Weather Reading

    Today, 24 August, Saturday

    Time Temperature Precipitation Wind Pressure Humidity
    00:00 +16°C° 0 mm 1 mps 762 mmHg 68%
    01:00 +15°C° 0 mm 1 mps 762 mmHg 69%
    02:00 +15°C° 0 mm 1 mps 761 mmHg 70%
    03:00 +15°C° 0 mm 1 mps 761 mmHg 72%
    04:00 +15°C° 0 mm 1 mps 761 mmHg 73%
    05:00 +15°C° 0 mm 1 mps 761 mmHg 74%
    06:00 +16°C° 0 mm 1 mps 761 mmHg 78%
    07:00 +19°C° 0 mm 1 mps 761 mmHg 72%
    08:00 +21°C° 0 mm 1 mps 761 mmHg 66%
    09:00 +23°C° 0 mm 2 mps 761 mmHg 61%
    10:00 +25°C° 0 mm 2 mps 760 mmHg 55%
    11:00 +26°C° 0 mm 3 mps 760 mmHg 50%
    12:00 +28°C° 0 mm 3 mps 760 mmHg 45%
    13:00 +28°C° 0 mm 3 mps 760 mmHg 44%
    14:00 +28°C° 0 mm 3 mps 760 mmHg 43%
    15:00 +28°C° 0 mm 3 mps 759 mmHg 42%
    16:00 +27°C° 0 mm 3 mps 759 mmHg 47%
    17:00 +26°C° 0 mm 2 mps 759 mmHg 52%
    18:00 +24°C° 0 mm 2 mps 758 mmHg 57%
    19:00 +23°C° 0 mm 2 mps 759 mmHg 58%
    20:00 +22°C° 0 mm 1 mps 759 mmHg 59%
    21:00 +21°C° 0 mm 1 mps 759 mmHg 60%
    22:00 +20°C° 0 mm 1 mps 759 mmHg 62%
    23:00 +20°C° 0 mm 1 mps 759 mmHg 64%

    Tomorrow, 25 August, Sunday

    Time Temperature Precipitation Wind Pressure Humidity
    00:00 +19°C° 0 mm 1 mps 759 mmHg 66%
    01:00 +18°C° 0 mm 2 mps 759 mmHg 68%
    02:00 +18°C° 0 mm 2 mps 759 mmHg 69%
    03:00 +18°C° 0 mm 2 mps 759 mmHg 71%
    04:00 +18°C° 0 mm 2 mps 758 mmHg 72%
    05:00 +18°C° 0 mm 2 mps 758 mmHg 72%
    06:00 +18°C° 0 mm 2 mps 758 mmHg 73%
    07:00 +20°C° 0 mm 2 mps 759 mmHg 68%
    08:00 +23°C° 0 mm 2 mps 759 mmHg 63%
    09:00 +26°C° 0 mm 3 mps 759 mmHg 58%
    10:00 +27°C° 0 mm 3 mps 759 mmHg 55%
    11:00 +28°C° 0 mm 3 mps 759 mmHg 52%
    12:00 +29°C° 0 mm 3 mps 759 mmHg 49%
    13:00 +29°C° 0 mm 3 mps 759 mmHg 48%
    14:00 +29°C° 0 mm 3 mps 759 mmHg 46%
    15:00 +30°C° 0 mm 3 mps 759 mmHg 45%
    16:00 +28°C° 0 mm 3 mps 759 mmHg 50%
    17:00 +27°C° 0 mm 3 mps 759 mmHg 56%
    18:00 +26°C° 0 mm 2 mps 759 mmHg 61%
    19:00 +24°C° 0 mm 2 mps 759 mmHg 66%
    20:00 +21°C° 0 mm 2 mps 760 mmHg 70%
    21:00 +21°C° 0 mm 1 mps 760 mmHg 75%
    22:00 +20°C° 0 mm 1 mps 760 mmHg 76%
    23:00 +20°C° 0 mm 1 mps 760 mmHg 76%

    Day after tomorrow, 26 August, Monday

    Time Temperature Precipitation Wind Pressure Humidity
    00:00 +19°C° 0 mm 1 mps 760 mmHg 77%
    01:00 +19°C° 0 mm 1 mps 760 mmHg 78%
    02:00 +18°C° 0 mm 1 mps 759 mmHg 78%
    03:00 +18°C° 0 mm 1 mps 759 mmHg 79%
    04:00 +16°C° 0 mm 0 mps 759 mmHg 78%
    05:00 +16°C° 0 mm 0 mps 759 mmHg 77%
    06:00 +16°C° 0 mm 0 mps 759 mmHg 77%
    07:00 +18°C° 0 mm 0 mps 759 mmHg 70%
    08:00 +20°C° 0 mm 0 mps 759 mmHg 63%
    09:00 +24°C° 0 mm 1 mps 759 mmHg 57%
    10:00 +25°C° 0 mm 1 mps 759 mmHg 53%
    11:00 +27°C° 0 mm 1 mps 759 mmHg 49%
    12:00 +28°C° 0 mm 1 mps 759 mmHg 45%
    13:00 +29°C° 0 mm 1 mps 759 mmHg 44%
    14:00 +29°C° 0 mm 1 mps 759 mmHg 43%
    15:00 +30°C° 0 mm 1 mps 758 mmHg 42%
    16:00 +28°C° 0 mm 1 mps 758 mmHg 48%
    17:00 +27°C° 0 mm 2 mps 758 mmHg 54%
    18:00 +26°C° 0 mm 2 mps 758 mmHg 59%
    19:00 +25°C° 0 mm 2 mps 758 mmHg 63%
    20:00 +22°C° 0 mm 3 mps 758 mmHg 66%
    21:00 +20°C° 0 mm 3 mps 759 mmHg 70%
    22:00 +20°C° 0 mm 3 mps 759 mmHg 73%
    23:00 +19°C° 0 mm 3 mps 759 mmHg 77%

    27 August, Tuesday

    Time Temperature Precipitation Wind Pressure Humidity
    00:00 +19°C° 0 mm 3 mps 759 mmHg 81%
    01:00 +18°C° 0 mm 3 mps 758 mmHg 82%
    02:00 +18°C° 0 mm 2 mps 758 mmHg 83%
    03:00 +18°C° 0 mm 2 mps 758 mmHg 84%
    04:00 +18°C° 0 mm 2 mps 758 mmHg 83%
    05:00 +19°C° 0 mm 2 mps 758 mmHg 82%
    06:00 +19°C° 0 mm 2 mps 758 mmHg 81%
    07:00 +20°C° 0 mm 2 mps 758 mmHg 76%
    08:00 +21°C° 0 mm 2 mps 758 mmHg 72%
    09:00 +24°C° 0 mm 2 mps 758 mmHg 67%
    10:00 +25°C° 0 mm 2 mps 758 mmHg 63%
    11:00 +26°C° 0 mm 2 mps 758 mmHg 59%
    12:00 +27°C° 0 mm 2 mps 758 mmHg 56%
    13:00 +28°C° 0 mm 2 mps 758 mmHg 54%
    14:00 +29°C° 0 mm 2 mps 758 mmHg 52%
    15:00 +29°C° 0 mm 1 mps 757 mmHg 50%
    16:00 +28°C° 0.1 mm 1 mps 757 mmHg 55%
    17:00 +28°C° 0.1 mm 1 mps 757 mmHg 59%
    18:00 +27°C° 0.1 mm 1 mps 756 mmHg 64%
    19:00 +25°C° 0.3 mm 1 mps 756 mmHg 66%
    20:00 +24°C° 0.3 mm 1 mps 756 mmHg 68%
    21:00 +23°C° 0.3 mm 1 mps 756 mmHg 71%
    22:00 +22°C° 0 mm 1 mps 756 mmHg 71%
    23:00 +21°C° 0 mm 2 mps 756 mmHg 72%

    28 August, Wednesday

    Time Temperature Precipitation Wind Pressure Humidity
    00:00 +20°C° 0 mm 2 mps 756 mmHg 72%
    01:00 +21°C° 0 mm 1 mps 755 mmHg 73%
    02:00 +20°C° 0 mm 1 mps 755 mmHg 74%
    03:00 +18°C° 0 mm 0 mps 754 mmHg 74%
    04:00 +18°C° 0 mm 0 mps 754 mmHg 75%
    05:00 +18°C° 0 mm 0 mps 754 mmHg 76%
    06:00 +18°C° 0 mm 0 mps 754 mmHg 77%
    07:00 +19°C° 0 mm 0 mps 754 mmHg 73%
    08:00 +23°C° 0 mm 1 mps 754 mmHg 69%
    09:00 +24°C° 0 mm 1 mps 754 mmHg 65%
    10:00 +25°C° 0.1 mm 1 mps 754 mmHg 63%
    11:00 +25°C° 0.1 mm 2 mps 754 mmHg 62%
    12:00 +26°C° 0.1 mm 2 mps 754 mmHg 61%
    13:00 +26°C° 0 mm 2 mps 754 mmHg 61%
    14:00 +26°C° 0 mm 2 mps 754 mmHg 62%
    15:00 +26°C° 0 mm 2 mps 753 mmHg 62%
    16:00 +25°C° 0.1 mm 2 mps 753 mmHg 68%
    17:00 +24°C° 0.1 mm 2 mps 753 mmHg 73%
    18:00 +22°C° 0.1 mm 3 mps 753 mmHg 79%
    19:00 +21°C° 0.3 mm 3 mps 753 mmHg 82%
    20:00 +20°C° 0.3 mm 3 mps 754 mmHg 86%
    21:00 +19°C° 0.3 mm 3 mps 754 mmHg 90%
    22:00 +18°C° 0 mm 4 mps 754 mmHg 90%
    23:00 +17°C° 0 mm 4 mps 754 mmHg 91%

    29 August, Thursday

    Time Temperature Precipitation Wind Pressure Humidity
    00:00 +15°C° 0 mm 4 mps 755 mmHg 92%
    01:00 +14°C° 0 mm 4 mps 755 mmHg 91%
    02:00 +13°C° 0 mm 4 mps 755 mmHg 91%
    03:00 +12°C° 0 mm 4 mps 756 mmHg 90%
    04:00 +12°C° 0 mm 4 mps 756 mmHg 90%
    05:00 +12°C° 0 mm 4 mps 757 mmHg 90%
    06:00 +12°C° 0 mm 4 mps 757 mmHg 90%
    07:00 +13°C° 0 mm 4 mps 758 mmHg 82%
    08:00 +14°C° 0 mm 4 mps 758 mmHg 74%
    09:00 +17°C° 0 mm 4 mps 759 mmHg 66%
    10:00 +18°C° 0 mm 4 mps 759 mmHg 63%
    11:00 +19°C° 0 mm 4 mps 760 mmHg 60%
    12:00 +20°C° 0 mm 4 mps 760 mmHg 58%
    13:00 +20°C° 0 mm 5 mps 760 mmHg 56%
    14:00 +20°C° 0 mm 5 mps 760 mmHg 55%
    15:00 +20°C° 0 mm 5 mps 760 mmHg 54%
    16:00 +19°C° 0 mm 4 mps 760 mmHg 59%
    17:00 +19°C° 0 mm 4 mps 760 mmHg 64%
    18:00 +18°C° 0 mm 3 mps 761 mmHg 69%
    19:00 +17°C° 0 mm 3 mps 761 mmHg 73%
    20:00 +14°C° 0 mm 3 mps 761 mmHg 77%
    21:00 +14°C° 0 mm 2 mps 762 mmHg 82%
    22:00 +14°C° 0 mm 2 mps 762 mmHg 83%
    23:00 +14°C° 0 mm 2 mps 762 mmHg 85%
    Show more